Tracking 19969 objects as of 12-Nov-2019
Live streaming from Space Station
objects crossing your sky now
Track the group of recently launched Starlink satellites

COSMOS 1275 DEB

Track COSMOS 1275 DEB now!
10-day predictions


NORAD ID: 12757
Int'l Code: 1981-053DA
Perigee: 923.6 km
Apogee: 1,014.6 km
Inclination: 83.0 °
Period: 104.3 minutes
Semi major axis: 7340 km
RCS: 0.017 m2 (small)
Launch date: June 4, 1981
Source: Commonwealth of Independent States (former USSR) (CIS)
Launch site: PLESETSK MISSILE AND SPACE COMPLEX (PKMTR)

Note: This is SATELLITE DEBRIS
aabbcc
Your satellite tracking list
Your tracking list is empty




NASA's NSSDC Master Catalog

Two Line Element Set (TLE):
1 12757U 81053DA  19315.22150753 +.00000186 +00000-0 +16107-3 0  9996
2 12757 082.9524 218.5288 0061972 351.6849 166.6603 13.80540005920633
Source of the keplerian elements: AFSPC